CDT,Max TemperatureF,Mean TemperatureF,Min TemperatureF,Max Dew PointF,MeanDew PointF,Min DewpointF,Max Humidity, Mean Humidity, Min Humidity, Max Sea Level PressureIn, Mean Sea Level PressureIn, Min Sea Level PressureIn, Max VisibilityMiles, Mean VisibilityMiles, Min VisibilityMiles, Max Wind SpeedMPH, Mean Wind SpeedMPH, Max Gust SpeedMPH,PrecipitationIn, CloudCover, Events, WindDirDegrees
2012-8-1,99,88,76,65,64,62,64,48,31,29.89,29.82,29.75,10,10,10,14,7,17,0.00,0,,82
2012-8-2,95,84,72,70,66,62,93,64,34,29.87,29.78,29.71,10,10,8,28,5,38,0.10,1,Rain-Thunderstorm,357
2012-8-3,97,85,73,69,67,64,87,62,36,29.82,29.76,29.73,10,10,10,14,6,17,0.00,0,,77
2012-8-4,92,84,75,70,67,62,74,62,50,30.00,29.82,29.71,10,10,10,21,9,30,0.08,0,Rain,5
2012-8-5,91,77,62,60,53,46,84,54,23,30.18,30.12,30.05,10,10,10,18,7,24,0.00,0,,356
2012-8-6,96,80,64,57,51,46,67,43,19,30.13,30.06,29.97,10,10,10,13,6,21,0.00,0,,71
2012-8-7,102,86,69,55,50,44,53,34,15,29.97,29.93,29.88,10,10,10,13,5,17,0.00,0,,162
2012-8-8,101,86,71,64,57,40,79,47,14,29.95,29.89,29.80,10,10,10,35,9,49,0.01,1,Rain-Thunderstorm,79
2012-8-9,87,78,68,65,61,57,81,62,43,29.95,29.91,29.86,10,10,10,22,10,28,0.00,1,,354
2012-8-10,84,74,63,58,51,46,73,51,28,30.04,30.00,29.96,10,10,10,18,8,24,0.00,0,,10
2012-8-11,87,74,60,55,51,45,78,51,24,30.07,30.00,29.91,10,10,10,12,4,14,T,0,,105
2012-8-12,95,81,66,60,56,52,66,45,24,29.94,29.86,29.76,10,10,10,21,10,26,0.01,3,Rain,191
2012-8-13,74,68,61,61,58,55,81,69,57,30.04,29.98,29.88,10,10,10,20,8,24,0.00,5,,341
2012-8-14,72,65,58,61,57,54,93,76,59,30.08,30.01,29.94,10,10,8,14,4,18,0.10,1,Rain,178
2012-8-15,93,75,56,64,60,55,100,69,38,29.94,29.88,29.77,10,8,2,18,7,23,0.00,0,,174
2012-8-16,84,74,63,67,59,50,69,55,40,30.06,29.94,29.80,10,10,9,21,10,28,0.01,2,Rain-Thunderstorm,333
2012-8-17,84,70,56,52,44,36,72,45,18,30.10,30.04,29.97,10,10,10,14,5,17,0.00,0,,2
2012-8-18,85,69,52,49,42,38,77,49,20,30.02,29.94,29.87,10,10,10,21,6,26,T,2,,44
2012-8-19,83,72,61,50,45,41,65,45,24,30.02,29.97,29.93,10,10,10,17,8,24,T,2,,30
2012-8-20,87,71,54,51,45,40,72,46,20,30.04,29.98,29.93,10,10,10,10,2,16,0.00,1,,217
2012-8-21,95,78,60,46,43,38,55,35,14,30.02,29.98,29.95,10,10,10,14,3,20,0.00,1,,229
2012-8-22,95,79,63,57,46,42,56,37,17,30.05,29.99,29.94,10,10,10,21,7,29,0.00,0,,212
2012-8-23,94,79,63,53,48,44,65,43,20,30.03,29.97,29.90,10,10,10,25,9,32,0.00,0,,196
2012-8-24,84,77,70,63,56,47,57,47,36,29.97,29.91,29.86,10,10,10,17,7,28,T,3,,175
2012-8-25,84,78,71,70,63,55,87,69,50,29.96,29.87,29.83,10,9,5,21,9,25,0.03,6,Rain,157
2012-8-26,84,76,68,72,69,66,100,79,58,30.02,29.94,29.85,10,8,1,15,6,26,0.18,6,Rain,214
2012-8-27,94,81,67,69,60,45,100,61,22,30.13,30.07,30.02,10,10,6,14,7,18,0.00,0,,41
2012-8-28,95,79,63,61,55,50,73,48,23,30.14,30.06,29.97,10,10,10,10,3,14,0.00,0,,126
2012-8-29,95,81,66,60,57,53,76,51,26,30.02,29.96,29.89,10,10,10,14,3,17,0.00,0,,167
2012-8-30,98,83,67,56,51,44,61,39,17,29.98,29.91,29.85,10,10,9,13,6,17,0.00,0,,132
2012-8-31,78,74,69,70,68,58,100,74,48,29.96,29.85,29.78,10,5,1,29,12,39,2.79,6,Rain,34